Station 46087 (LLNR 756) - Neah Bay - 6 NM North of Cape Flattery, WA (Traffic Separation Lighted Buoy) Image indicating link to RSS feed of recent meteorological observations for station 46087

Strait of Juan de Fuca Traffic Separation Lighted Buoy JA


Conditions at 46087 as of
(8:30 pm PDT on 04/14/2024)
0330 GMT on 04/15/2024:
     

Click on the graph icon in the table below to see a time series plot of the last five days of that observation.

5-day plot - Wind Direction Wind Direction (WDIR): W ( 280 deg true )
5-day plot - Wind Speed Wind Speed (WSPD): 17.5 kts
5-day plot - Wind Gust Wind Gust (GST): 21.4 kts
5-day plot - Atmospheric Pressure Atmospheric Pressure (PRES):30.09 in
5-day plot - Wind Speed at 10 Meters Wind Speed at 10 meters (WSPD10M): 19.4 kts
5-day plot - Wind Speed at 20 Meters Wind Speed at 20 meters (WSPD20M): 19.4 kts
5-day plot -  Wind Speed, Wind Gust and Atmospheric Pressure Combined plot of Wind Speed, Gust, and Air Pressure
Supplemental Measurements
Highest 1-minute Wind Speed
Time (PDT)5-day plot - 1-Minute Wind Speed WSPD 5-day plot - 1-Minute Wind Direction WDIR
8:24 pm 17.5 kts-
Previous observations
TIME
(PDT)
5-day plot - Wind Direction
WDIR
 
5-day plot - Wind Speed
WSPD
kts
5-day plot - Wind Gust
GST
kts
5-day plot - Wave Height
WVHT
ft
5-day plot - Dominant Wave Period
DPD
sec
5-day plot - Average Wave Period
APD
sec
5-day plot - Mean Wave Direction
MWD
 
5-day plot - Atmospheric Pressure
PRES
in
5-day plot - Pressure Tendency
PTDY
in
5-day plot - Air Temperature
ATMP
°F
5-day plot - Water Temperature
WTMP
°F
5-day plot - Dew Point
DEWP
°F
5-day plot - Salinity
SAL
psu
5-day plot - Visibility
VIS
nmi
5-day plot - Tide (above MLLW)
TIDE
ft
2024-04-14 08:20 pm W 17.5 23.3----30.09-------
2024-04-14 08:10 pm W 17.5 23.3----30.09-------
2024-04-14 08:00 pm W 17.5 21.4----30.09+0.01------
2024-04-14 07:50 pm W 17.5 21.4----30.09-------
2024-04-14 07:40 pm W 17.5 21.4----30.09-------
2024-04-14 07:30 pm W 17.5 21.4----30.09-------
2024-04-14 07:20 pm W 17.5 21.4----30.09-------
2024-04-14 07:10 pm W 17.5 21.4----30.08-------
2024-04-14 07:00 pm W 17.5 23.3----30.08+0.01------
2024-04-14 06:50 pm W 17.5 21.4----30.08-------
2024-04-14 06:40 pm W 17.5 21.4----30.08-------
2024-04-14 06:30 pm W 17.5 23.3----30.08-------
2024-04-14 06:20 pm W 17.5 21.4----30.08-------
2024-04-14 06:10 pm W 17.5 21.4----30.08-------
2024-04-14 06:00 pm W 17.5 21.4----30.08+0.02------
2024-04-14 05:50 pm W 15.5 19.4----30.08-------
2024-04-14 05:40 pm W 15.5 21.4----30.08-------
2024-04-14 05:30 pm W 15.5 21.4----30.08-------
2024-04-14 05:20 pm W 17.5 21.4----30.08-------
2024-04-14 05:10 pm W 15.5 19.4----30.08-------
2024-04-14 05:00 pm W 13.6 17.5----30.08+0.02------
2024-04-14 04:50 pm W 15.5 19.4----30.07-------
2024-04-14 04:40 pm W 15.5 19.4----30.07-------
2024-04-14 04:30 pm W 13.6 17.5----30.07-------
2024-04-14 04:20 pm W 15.5 17.5----30.06-------
2024-04-14 04:10 pm W 15.5 19.4----30.06-------
2024-04-14 04:00 pm W 15.5 17.5----30.07+0.02------
2024-04-14 03:50 pmWNW 15.5 19.4----30.06-------
2024-04-14 03:40 pmWNW 15.5 19.4----30.06-------
2024-04-14 03:30 pmWNW 13.6 17.5----30.06-------
2024-04-14 03:20 pm W 13.6 17.5----30.06-------
2024-04-14 03:10 pm W 13.6 15.5----30.07-------
2024-04-14 03:00 pm W 11.7 15.5----30.06+0.02------
2024-04-14 02:50 pm W 11.7 15.5----30.06-------
2024-04-14 02:40 pm W 13.6 15.5----30.06-------
2024-04-14 02:30 pm W 11.7 15.5----30.06-------
2024-04-14 02:20 pm W 11.7 15.5----30.06-------
2024-04-14 02:10 pm W 9.7 13.6----30.06-------
2024-04-14 02:00 pm W 9.7 13.6----30.06+0.02------
2024-04-14 01:50 pm W 9.7 13.6----30.05-------
2024-04-14 01:40 pm W 9.7 13.6----30.06-------
2024-04-14 01:30 pm W 9.7 13.6----30.05-------
2024-04-14 01:20 pmWNW 9.7 13.6----30.05-------
2024-04-14 01:10 pmWNW 11.7 15.5----30.05-------
2024-04-14 01:00 pm W 9.7 15.5----30.05+0.03------
2024-04-14 12:50 pm W 9.7 13.6----30.05-------
2024-04-14 12:40 pm W 9.7 11.7----30.05-------
2024-04-14 12:30 pm W 9.7 11.7----30.05-------
2024-04-14 12:20 pm W 7.8 11.7----30.05-------
2024-04-14 12:10 pm W 5.8 9.7----30.05-------
2024-04-14 12:00 pmWSW 3.9 7.8----30.05+0.04------
2024-04-14 11:50 am W 1.9 3.9----30.05-------
2024-04-14 11:40 am W 3.9 7.8----30.05-------
2024-04-14 11:30 am W 5.8 9.7----30.04-------
2024-04-14 11:20 am W 5.8 7.8----30.04-------
2024-04-14 11:10 am W 5.8 9.7----30.04-------
2024-04-14 11:00 amWSW 5.8 9.7----30.03+0.04------
2024-04-14 10:50 am W 5.8 7.8----30.03-------
2024-04-14 10:40 am W 5.8 9.7----30.03-------
2024-04-14 10:30 amWSW 7.8 11.7----30.03-------
2024-04-14 10:20 am SW 5.8 9.7----30.02-------
2024-04-14 10:10 amWSW 5.8 9.7----30.02-------
2024-04-14 10:00 am SW 5.8 9.7----30.02+0.04------
2024-04-14 09:50 amWSW 5.8 7.8----30.02-------
2024-04-14 09:40 amWSW 3.9 7.8----30.02-------
2024-04-14 09:30 am SW 3.9 5.8----30.01-------
2024-04-14 09:20 am SW 3.9 5.8----30.01-------
2024-04-14 09:10 amSSW 5.8 7.8----30.00-------
2024-04-14 09:00 am S 5.8 9.7----30.01+0.03------
2024-04-14 08:50 am S 5.8 7.8----30.01-------
2024-04-14 08:40 am S 3.9 7.8----30.01-------
2024-04-14 08:30 am S 3.9 7.8----30.01-------
2024-04-14 08:20 am S 5.8 9.7----30.01-------
2024-04-14 08:10 am S 7.8 9.7----30.01-------
2024-04-14 08:00 am S 7.8 9.7----30.00+0.04------
2024-04-14 07:50 amSSW 5.8 9.7----29.99-------
2024-04-14 07:40 am SW 5.8 7.8----29.99-------
2024-04-14 07:30 amSSW 3.9 7.8----29.99-------
2024-04-14 07:20 amWSW 5.8 7.8----29.99-------
2024-04-14 07:10 am W 5.8 7.8----29.99-------
2024-04-14 07:00 am SW 3.9 7.8----29.98+0.03------
2024-04-14 06:50 amSSW 3.9 7.8----29.98-------
2024-04-14 06:40 am S 1.9 3.9----29.98-------
2024-04-14 06:30 am S 1.9 5.8----29.98-------
2024-04-14 06:20 amSSE 3.9 5.8----29.97-------
2024-04-14 06:10 am S 3.9 5.8----29.97-------
2024-04-14 06:00 am S 3.9 5.8----29.98+0.02------
2024-04-14 05:50 am S 3.9 7.8----29.97-------
2024-04-14 05:40 am S 3.9 5.8----29.97-------
2024-04-14 05:30 amSSW 3.9 7.8----29.97-------
2024-04-14 05:20 amSSW 5.8 9.7----29.97-------
2024-04-14 05:10 amSSW 5.8 7.8----29.96-------
2024-04-14 05:00 am S 5.8 9.7----29.96+0.01------
2024-04-14 04:50 am S 7.8 9.7----29.96-------
2024-04-14 04:40 am S 7.8 9.7----29.96-------
2024-04-14 04:30 am S 5.8 9.7----29.96-------
2024-04-14 04:20 am S 5.8 7.8----29.96-------
2024-04-14 04:10 amSSW 5.8 7.8----29.96-------
2024-04-14 04:00 amSSW 5.8 7.8----29.95+0.00------
2024-04-14 03:50 amSSW 7.8 9.7----29.95-------
2024-04-14 03:40 am S 7.8 9.7----29.95-------
2024-04-14 03:30 am S 7.8 9.7----29.96-------
2024-04-14 03:20 am S 7.8 9.7----29.95-------
2024-04-14 03:10 am S 7.8 9.7----29.96-------
2024-04-14 03:00 am S 7.8 9.7----29.95+0.00------
2024-04-14 02:50 amSSW 7.8 9.7----29.95-------
2024-04-14 02:40 am S 7.8 9.7----29.96-------
2024-04-14 02:30 am S 9.7 11.7----29.95-------
2024-04-14 02:20 am S 9.7 11.7----29.94-------
2024-04-14 02:10 am S 9.7 11.7----29.95-------
2024-04-14 02:00 am S 7.8 9.7----29.95+0.00------
2024-04-14 01:50 am S 7.8 9.7----29.96-------
2024-04-14 01:40 am S 7.8 9.7----29.96-------
2024-04-14 01:30 am S 7.8 9.7----29.96-------
2024-04-14 01:20 am S 7.8 9.7----29.96-------
2024-04-14 01:10 am S 7.8 9.7----29.96-------
2024-04-14 01:00 am S 7.8 9.7----29.96+0.00------
2024-04-14 12:50 amSSW 7.8 9.7----29.96-------
2024-04-14 12:40 amSSW 7.8 9.7----29.95-------
2024-04-14 12:30 amSSW 7.8 9.7----29.95-------
2024-04-14 12:20 amSSW 7.8 9.7----29.95-------
2024-04-14 12:10 amSSW 7.8 9.7----29.95-------
2024-04-14 12:00 amSSW 7.8 9.7----29.95+0.00------
2024-04-13 11:50 pmSSW 7.8 11.7----29.95-------
2024-04-13 11:40 pmSSW 7.8 9.7----29.95-------
2024-04-13 11:30 pmSSW 7.8 9.7----29.95-------
2024-04-13 11:20 pm SW 7.8 9.7----29.95-------
2024-04-13 11:10 pm SW 5.8 7.8----29.96-------
2024-04-13 11:00 pm SW 5.8 7.8----29.96+0.02------
2024-04-13 10:50 pm SW 5.8 7.8----29.95-------
2024-04-13 10:40 pm SW 5.8 7.8----29.95-------
2024-04-13 10:30 pm SW 5.8 7.8----29.95-------
2024-04-13 10:20 pm SW 5.8 7.8----29.96-------
2024-04-13 10:10 pm SW 5.8 7.8----29.96-------
2024-04-13 10:00 pmWSW 5.8 7.8----29.96+0.03------
2024-04-13 09:50 pm W 7.8 9.7----29.96-------
2024-04-13 09:40 pmWSW 7.8 9.7----29.96-------
2024-04-13 09:30 pmWSW 7.8 7.8----29.96-------
2024-04-13 09:20 pmWSW 7.8 7.8----29.96-------
2024-04-13 09:10 pmWSW 5.8 7.8----29.95-------
2024-04-13 09:00 pmWSW 5.8 7.8----29.95+0.01------
2024-04-13 08:50 pm SW 5.8 7.8----29.95-------

Ocean Current Data for 46087

Unit of Measure:   Time Zone:   
8:50 pm PDT 8:20 pm PDT 7:50 pm PDT 7:20 pm PDT 6:50 pm PDT 6:20 pm PDT 5:50 pm PDT 5:20 pm PDT
Depth
ft
Dir
°
Speed
kts
Dir
°
Speed
kts
Dir
°
Speed
kts
Dir
°
Speed
kts
Dir
°
Speed
kts
Dir
°
Speed
kts
Dir
°
Speed
kts
Dir
°
Speed
kts
4 ----123 1.65----------
4 131 1.57131 1.64------------

Previous 24 hours of ocean current data for 46087

Ocean Current Stick Plots are available in metric units only:

All Instruments - 1-day plot - ocean current 1-day plot     3-day plot - ocean current 3-day plot     5-day plot - ocean current 5-day plot